Weather History for Jackson, KY

Change the Weather History Date:

Tuesday, July 8, 2014

  Actual Average Record
Temperature  
Mean Temperature 80 °F 75 °F  
Max Temperature 87 °F 85 °F 101 °F (1988)
Min Temperature 73 °F 66 °F 55 °F (1983)
Degree Days  
Heating Degree Days 0 0  
Month to date heating degree days 0 0  
Since 1 June heating degree days 0 12  
Since 1 July heating degree days 0 0  
Cooling Degree Days 15 10  
Month to date cooling degree days 83 80  
Year to date cooling degree days 561 439  
Since 1 June cooling degree days 370 303  
Growing Degree Days 28 (Base 50)    
Moisture  
Dew Point 65 °F    
Average Humidity 63    
Maximum Humidity 76    
Minimum Humidity 50    
Precipitation  
Precipitation 0.01 in 0.14 in 1.82 in (2011)
Month to date precipitation 0.05 1.16  
Year to date precipitation 24.03 26.37  
Snow  
Snow 0.00 in 0.00 in - ()
Month to date snowfall 0.0 0.0  
Since 1 June snowfall 0.0 0.0  
Since 1 July snowfall 0.0 0.0  
Snow Depth 0.00 in    
Sea Level Pressure  
Sea Level Pressure 29.89 in    
Wind  
Wind Speed 3 mph (WSW)    
Max Wind Speed 12 mph    
Max Gust Speed 23 mph    
Visibility 10 miles    
Events Rain    
T = Trace of Precipitation, MM = Missing Value Source: NWS Daily Summary

Daily Weather History Graph

Daily Weather History Graph

Search for Another Location

Airport:

Trip Planner

Search our weather history database for the weather conditions in past years. The results will help you decide how hot, cold, wet, or windy it might be!

Date:

Astronomy

Jul. 08, 2014 Rise Set
Actual Time 6:19 AM EDT 8:57 PM EDT
Civil Twilight 5:48 AM EDT 9:27 PM EDT
Nautical Twilight 5:10 AM EDT 10:06 PM EDT
Astronomical Twilight 4:27 AM EDT 10:48 PM EDT
Moon 5:05 PM EDT (7/8) 2:48 AM EDT (7/8)
Length of Visible Light 15h 39m
Length of Day
14h 37m
Waxing Gibbous, 81% of the Moon is Illuminated
Jul 8
Waxing Gibbous
Jul 12
Full
Jul 18
Last Quarter
Jul 26
New
Aug 3
First Quarter

Hourly Weather History & Observations

Time (EDT) Temp. Heat Index Dew Point Humidity Pressure Visibility Wind Dir Wind Speed Gust Speed Precip Events Conditions
12:53 AM 77.0 °F - 57.0 °F 50% 29.89 in 10.0 mi Calm Calm - N/A   Clear
1:53 AM 75.9 °F - 57.9 °F 54% 29.88 in 10.0 mi Variable 3.5 mph - N/A   Clear
2:53 AM 75.0 °F - 59.0 °F 57% 29.87 in 10.0 mi Variable 4.6 mph - N/A   Clear
3:53 AM 73.0 °F - 60.1 °F 64% 29.86 in 10.0 mi Variable 3.5 mph - N/A   Clear
4:53 AM 73.0 °F - 61.0 °F 66% 29.90 in 10.0 mi Calm Calm - N/A   Clear
5:53 AM 73.0 °F - 63.0 °F 71% 29.92 in 10.0 mi Variable 3.5 mph - N/A   Scattered Clouds
6:53 AM 73.0 °F - 64.0 °F 73% 29.91 in 10.0 mi Variable 4.6 mph - N/A   Clear
7:53 AM 75.0 °F - 64.9 °F 71% 29.92 in 10.0 mi Variable 3.5 mph - N/A   Mostly Cloudy
8:53 AM 75.9 °F - 66.0 °F 71% 29.91 in 10.0 mi Variable 3.5 mph - N/A   Mostly Cloudy
9:53 AM 75.9 °F - 66.9 °F 74% 29.91 in 8.0 mi Variable 4.6 mph - 0.00 in Rain Light Rain
10:50 AM 78.8 °F - 66.2 °F 65% 29.94 in 10.0 mi Variable 3.5 mph - 0.00 in   Overcast
10:53 AM 79.0 °F - 66.9 °F 66% 29.89 in 10.0 mi Variable 4.6 mph - 0.00 in   Overcast
11:26 AM 78.8 °F - 66.2 °F 65% 29.92 in 10.0 mi Variable 5.8 mph - N/A   Mostly Cloudy
11:53 AM 80.1 °F 82.3 °F 66.9 °F 64% 29.86 in 10.0 mi North - - N/A   Partly Cloudy
12:53 PM 82.9 °F 85.8 °F 68.0 °F 60% 29.88 in 10.0 mi Variable 4.6 mph - N/A   Scattered Clouds
1:53 PM 81.0 °F 83.8 °F 68.0 °F 65% 29.87 in 10.0 mi Variable 4.6 mph - N/A   Overcast
2:35 PM 82.0 °F 85.5 °F 69.1 °F 65% 29.92 in 10.0 mi Variable 4.6 mph - N/A   Mostly Cloudy
2:45 PM 82.9 °F 85.8 °F 68.0 °F 60% 29.92 in 10.0 mi North - - N/A   Mostly Cloudy
2:53 PM 84.0 °F 87.8 °F 69.1 °F 61% 29.86 in 10.0 mi Calm Calm - N/A   Mostly Cloudy
3:53 PM 84.9 °F 86.6 °F 64.9 °F 51% 29.84 in 10.0 mi Variable 5.8 mph - N/A   Mostly Cloudy
4:53 PM 84.2 °F 85.6 °F 64.4 °F 51% 29.88 in 10.0 mi Variable 5.8 mph - N/A   Mostly Cloudy
5:53 PM 82.0 °F 84.1 °F 66.0 °F 58% 29.84 in 10.0 mi North - - 0.01 in   Scattered Clouds
6:53 PM 84.0 °F 86.5 °F 66.9 °F 56% 29.85 in 10.0 mi Variable 5.8 mph - N/A   Scattered Clouds
7:53 PM 80.6 °F 82.7 °F 66.2 °F 61% 29.91 in 10.0 mi Calm Calm - N/A   Clear
8:53 PM 79.0 °F - 64.9 °F 62% 29.87 in 10.0 mi Variable 3.5 mph - N/A   Clear
9:53 PM 78.1 °F - 64.0 °F 62% 29.88 in 10.0 mi WSW 3.5 mph - N/A   Scattered Clouds
10:53 PM 77.0 °F - 63.0 °F 62% 29.90 in 10.0 mi Variable 3.5 mph - N/A   Mostly Cloudy
11:53 PM 75.9 °F - 66.9 °F 74% 29.91 in 10.0 mi Variable 4.6 mph - N/A   Overcast